Regional Weather Roundup
Issued by NWS

Home | Current Version | Previous Version | Graphics & Text | Print | Product List | Glossary On
Versions: 1 2 3 4 5 6 7 8 9 10 11 12 13 14 15 16 17 18 19 20 21 22 23 24 25 26 27 28 29 30 31 32 33 34 35 36 37 38 39 40 41 42 43 44 45 46 47 48 49 50
000
ASUS43 KMKX 202059
RWRWI

WISCONSIN REGIONAL WEATHER ROUNDUP
NATIONAL WEATHER SERVICE MILWAUKEE/SULLIVAN WI
300 PM CST FRI JAN 20 2017

NOTE: "FAIR" INDICATES FEW OR NO CLOUDS BELOW 12,000 FEET WITH NO
SIGNIFICANT WEATHER AND/OR OBSTRUCTIONS TO VISIBILITY.

WIZ001-002-006>008-014>016-023>028-202200-
NORTHWEST WISCONSIN

CITY           SKY/WX    TMP DP  RH WIND       PRES   REMARKS
SUPERIOR ARPT  LGT RAIN  35  35 100 E8        29.61R WCI  28
ASHLAND        LGT RAIN  33  32  96 N5        29.63R FOG     WCI  29
HAYWARD        LGT RAIN  37  35  92 E5        29.60S FOG     WCI  33
SIREN          CLOUDY    37  36  96 E5        29.57S FOG     WCI  33
CUMBERLAND     CLOUDY    34  32  93 SE7       29.57S FOG     WCI  28
RICE LAKE      CLOUDY    36  35  97 E5        29.59S FOG     WCI  32
CHETEK         CLOUDY    35  35  99 CALM      29.59S FOG
LADYSMITH      DRIZZLE   37  37  97 SE7       29.61S WCI  32
EAU CLAIRE     NOT AVBL
MENOMONIE        N/A    N/A N/A N/A MISG        N/A
NEW RICHMOND   CLOUDY    36  36 100 SE6       29.57R FOG     WCI  31
OSCEOLA        CLOUDY    36  36 100 SE6       29.59R FOG     WCI  31
$$

WIZ003>005-009-010-017-018-202200-
NORTH CENTRAL WISCONSIN

CITY           SKY/WX    TMP DP  RH WIND       PRES   REMARKS
MANITOWISH WTR LGT RAIN  36  36 100 SE3       29.61S
ARBOR VITAE    LGT RAIN  37  35  94 SE9       29.62R WCI  30
WOODRUFF       LGT RAIN  37  35  94 SE9       29.62R WCI  30
RHINELANDER    LGT SNOW  34  34 100 E8        29.63R FOG     WCI  27
EAGLE RIVER    LGT RAIN  36  35  98 SE3       29.63R
LAND O LAKES   LGT RAIN  38  35  92 S3        29.64S
PHILLIPS       LGT RAIN  36  36 100 SE6       29.60R WCI  31
TOMAHAWK       RAIN      36  35  96 CALM      29.62R
MEDFORD        LGT RAIN  35  34  97 SE7       29.60S VSB 1   WCI  29
MERRILL        RAIN      35  35 100 E5          N/A  VSB 3/4 WCI  31
$$

WIZ029-030-035-036-043>047-202200-
CENTRAL WISCONSIN

CITY           SKY/WX    TMP DP  RH WIND       PRES   REMARKS
WAUSAU         LGT RAIN  34  33  96 E7        29.62R WCI  28
MOSINEE        DRIZZLE   34  34 100 E3        29.63R FOG
MARSHFIELD     CLOUDY    35  33  92 SE10      29.59F FOG     WCI  27
STEVENS POINT  LGT RAIN  33  33 100 E8        29.63S WCI  25
WAUPACA        CLOUDY    38  35  91 CALM      29.64S FOG
WAUTOMA        CLOUDY    36  36 100 E6        29.63S FOG     WCI  31
WISC RAPIDS    CLOUDY    35  35 100 E7        29.62S FOG     WCI  29
CAMP DOUGLAS   NOT AVBL
$$

WIZ011>013-019>022-031-037>040-048>050-202200-
NORTHEAST WISCONSIN

CITY           SKY/WX    TMP DP  RH WIND       PRES   REMARKS
ANTIGO         LGT RAIN  33  33 100 E8        29.63R WCI  26
SHAWANO        CLOUDY    36  35  95 E7        29.66R FOG     WCI  30
OCONTO         CLOUDY    34  33  96 NE6       29.66S WCI  29
STURGEON BAY   LGT RAIN  34  33  96 N8        29.66F FOG     WCI  27
GREEN BAY      CLOUDY    35  35 100 NE12      29.64F FOG     WCI  27
MANITOWOC      NOT AVBL
APPLETON         N/A     36  36 100 E5        29.62S FOG     WCI  32
CLINTONVILLE   DRIZZLE   34  34 100 E3        29.64S
OSHKOSH        CLOUDY    36  34  92 NE5       29.63S FOG     WCI  32
$$

WIZ032>034-041-042-053>061-202200-
SOUTHWEST WISCONSIN

CITY           SKY/WX    TMP DP  RH WIND       PRES   REMARKS
LA CROSSE      CLOUDY    41  36  82 SE8       29.59R
SPARTA         CLOUDY    36  36 100 E8        29.60S FOG     WCI  29
VIROQUA        CLOUDY    35  35 100 E7        29.57R VSB 3/4 WCI  30
BOSCOBEL       FOG       39  38  96 NE3       29.59S VSB 1
PRAIRIE DU CHI FOG       38  37  97 CALM      29.58R VSB 1
PLATTEVILLE    CLOUDY    38  38 100 E7        29.58S VSB<1/4 WCI  32
$$

WIZ056-057-062-063-064-067-068-202200-
SOUTH CENTRAL WISCONSIN

CITY           SKY/WX    TMP DP  RH WIND       PRES   REMARKS
REEDSBURG      CLOUDY    36  36 100 NE5       29.58F FOG     WCI  32
BARABOO/DELLS  FOG       35  35  99 E7        29.58F VSB 3/4 WCI  29
LONE ROCK      CLOUDY    37  36  96 E6        29.61R FOG     WCI  32
MINERAL POINT  FOG       37  37 100 E6        29.57F VSB<1/4 WCI  33
MADISON        DRZL/FOG  37  37 100 E6        29.61S VSB 1/8 WCI  32
MIDDLETON      CLOUDY    38  38 100 SE6       29.60S VSB 1/4 WCI  33
WATERTOWN      CLOUDY    37  37 100 E9        29.59F FOG     WCI  30
MONROE         SNOW      37  36  93 E3        29.58S VSB<1/4
JANESVILLE     FOG       39  39 100 E6        29.60R VSB 1   WCI  35
$$

WIZ051-052-058>065-066-070>072-202200-
SOUTHEAST WISCONSIN

CITY           SKY/WX    TMP DP  RH WIND       PRES   REMARKS
MILWAUKEE      FOG       38  37  97 E9        29.63S VSB 1/4 WCI  31
WAUKESHA       FOG       36  36 100 E7        29.62F VSB 1/4 WCI  30
MILWAUKEE/TIMM FOG       37  34  87 E5        29.63F VSB 1   WCI  34
RACINE         FOG       38  36  92 E7        29.63F VSB 1/4 WCI  33
KENOSHA        FOG       38  37  97 E8        29.62S VSB<1/4 WCI  32
FOND DU LAC    CLOUDY    39  34  82 E6        29.63S WCI  35
SHEBOYGAN      CLOUDY    37  34  89 E6        29.64S FOG     WCI  32
WEST BEND      CLOUDY    36  36 100 SE7       29.63S FOG     WCI  30
JUNEAU         CLOUDY    37  36  96 E6        29.63S FOG     WCI  32
$$

LSZ147-162-202200-
LAKE SUPERIOR

STATION/POSITION TIME  TEMP    WIND        PRES    WAVE
                       AIR SEA DIR/SP/G            HT/PER
                 (UTC) (F)     (DEG/KT/KT) (MB)    (FT/S)
DEVILS ISLAND    2000   35      60/  8/  9 1004.1F
PORT WING        2040   37     130/  1/  5 1003.4R
SAXON HARBOR     2030   34        CALM     1003.4S
$$

LMZ867-665-643>646-202200-
LAKE MICHIGAN

STATION/POSITION TIME  TEMP    WIND        PRES    WAVE
                       AIR SEA DIR/SP/G            HT/PER
                 (UTC) (F)     (DEG/KT/KT) (MB)    (FT/S)
NORTHPORT PIER   2040   32     310/  3/  4 1005.1R
SISTER BAY       1950   34      10/  7/  7   N/A
KEWAUNEE LAKESHO 2030   36      20/  7/ 11 1003.5R
SHEBOYGAN LAKESH 2000   35     350/  7/  7 1004.2R
PORT WASHINGTON  2040   37      40/  1/  6 1005.1R
KENOSHA   LAKESH 2000   35        CALM     1004.1
$$

TC  - TEMPERATURE IN CELSIUS
VSB - VISIBILITY IN STATUTE MILES
WCI - WIND CHILL INDEX
HX  - HEAT INDEX





USA.gov is the U.S. government's official web portal to all federal, state and local government web resources and services.